TimePDT,TemperatureF,Dew PointF,Humidity,Sea Level PressureIn,VisibilityMPH,Wind Direction,Wind SpeedMPH,Gust SpeedMPH,PrecipitationIn,Events,Conditions,WindDirDegrees,DateUTC
12:15 AM,57.2,55.4,94,29.95,10.0,South,10.4,-,0.00,,Overcast,170,2012-10-30 07:15:00
12:55 AM,57.2,55.4,94,29.94,10.0,SSE,8.1,-,0.00,,Overcast,160,2012-10-30 07:55:00
1:15 AM,57.2,55.4,94,29.94,10.0,SSE,9.2,-,0.00,,Mostly Cloudy,160,2012-10-30 08:15:00
1:35 AM,57.2,55.4,94,29.94,10.0,SSE,8.1,-,0.00,,Mostly Cloudy,150,2012-10-30 08:35:00
1:55 AM,57.2,55.4,94,29.93,10.0,SSE,9.2,-,0.00,,Overcast,160,2012-10-30 08:55:00
2:15 AM,57.2,55.4,94,29.92,8.0,South,9.2,-,0.00,,Overcast,170,2012-10-30 09:15:00
2:35 AM,57.2,55.4,94,29.92,8.0,South,9.2,-,0.01,,Mostly Cloudy,180,2012-10-30 09:35:00
3:15 AM,55.4,55.4,100,29.91,7.0,South,6.9,-,0.01,,Overcast,170,2012-10-30 10:15:00
3:35 AM,55.4,55.4,100,29.90,9.0,Calm,Calm,-,0.02,,Overcast,0,2012-10-30 10:35:00
4:35 AM,55.4,55.4,100,29.90,6.0,South,5.8,-,0.01,,Overcast,170,2012-10-30 11:35:00
4:55 AM,55.4,55.4,100,29.89,7.0,South,5.8,-,0.02,,Overcast,190,2012-10-30 11:55:00
5:15 AM,55.4,55.4,100,29.88,9.0,South,3.5,-,0.01,,Overcast,180,2012-10-30 12:15:00
5:35 AM,55.4,55.4,100,29.88,10.0,SSW,6.9,-,0.01,,Overcast,200,2012-10-30 12:35:00
6:15 AM,55.4,55.4,100,29.88,9.0,Calm,Calm,-,0.00,,Overcast,0,2012-10-30 13:15:00
6:35 AM,55.4,55.4,100,29.88,5.0,SSE,3.5,-,0.03,,Overcast,150,2012-10-30 13:35:00
6:55 AM,55.4,55.4,100,29.87,6.0,ESE,3.5,-,0.03,,Overcast,120,2012-10-30 13:55:00
7:15 AM,53.6,53.6,100,29.88,4.0,Calm,Calm,-,0.04,,Overcast,0,2012-10-30 14:15:00
8:15 AM,53.6,53.6,100,29.87,5.0,East,4.6,-,0.00,,Mostly Cloudy,100,2012-10-30 15:15:00
8:35 AM,53.6,53.6,100,29.87,8.0,ENE,4.6,-,0.00,,Overcast,60,2012-10-30 15:35:00
8:55 AM,53.6,53.6,100,29.88,9.0,ENE,4.6,-,0.00,,Overcast,60,2012-10-30 15:55:00
9:15 AM,53.6,53.6,100,29.88,10.0,ENE,5.8,-,0.00,,Overcast,60,2012-10-30 16:15:00
9:35 AM,53.6,53.6,100,29.89,9.0,ENE,5.8,-,0.00,,Overcast,70,2012-10-30 16:35:00
9:55 AM,53.6,53.6,100,29.89,6.0,ENE,6.9,-,0.01,,Overcast,60,2012-10-30 16:55:00
10:15 AM,53.6,53.6,100,29.88,3.0,ENE,6.9,-,0.00,,Overcast,60,2012-10-30 17:15:00
10:35 AM,53.6,53.6,100,29.88,7.0,ENE,8.1,-,0.01,,Overcast,70,2012-10-30 17:35:00
10:55 AM,53.6,53.6,100,29.87,10.0,ENE,10.4,-,0.01,,Overcast,70,2012-10-30 17:55:00
11:15 AM,53.6,53.6,100,29.87,10.0,East,9.2,-,0.00,,Overcast,80,2012-10-30 18:15:00
11:35 AM,53.6,53.6,100,29.87,9.0,ENE,8.1,-,0.00,,Overcast,70,2012-10-30 18:35:00
12:15 PM,53.6,53.6,100,29.86,5.0,East,8.1,-,0.01,,Overcast,80,2012-10-30 19:15:00
12:35 PM,53.6,53.6,100,29.86,5.0,ENE,8.1,-,0.02,,Overcast,70,2012-10-30 19:35:00
12:55 PM,53.6,53.6,100,29.86,5.0,ENE,8.1,-,0.04,,Overcast,60,2012-10-30 19:55:00
1:15 PM,53.6,53.6,100,29.85,5.0,ENE,8.1,-,0.01,,Overcast,60,2012-10-30 20:15:00
1:35 PM,53.6,53.6,100,29.85,6.0,ENE,8.1,-,0.03,,Overcast,60,2012-10-30 20:35:00
1:55 PM,53.6,53.6,100,29.85,6.0,ENE,9.2,-,0.04,,Overcast,60,2012-10-30 20:55:00
2:15 PM,53.6,53.6,100,29.84,5.0,ENE,10.4,-,0.02,,Overcast,60,2012-10-30 21:15:00
2:35 PM,53.6,53.6,100,29.84,4.0,ENE,10.4,-,0.04,,Overcast,60,2012-10-30 21:35:00
2:55 PM,53.6,53.6,100,29.83,5.0,ENE,10.4,-,0.06,,Overcast,60,2012-10-30 21:55:00
3:15 PM,53.6,53.6,100,29.83,5.0,ENE,10.4,-,0.01,,Overcast,60,2012-10-30 22:15:00
3:35 PM,53.6,53.6,100,29.82,5.0,ENE,11.5,-,0.01,,Overcast,60,2012-10-30 22:35:00
3:55 PM,53.6,53.6,100,29.82,5.0,ENE,10.4,-,0.02,,Mostly Cloudy,60,2012-10-30 22:55:00
4:35 PM,53.6,53.6,100,29.81,5.0,East,10.4,-,0.01,,Mostly Cloudy,80,2012-10-30 23:35:00
4:55 PM,53.6,53.6,100,29.80,5.0,ENE,12.7,-,0.02,,Overcast,70,2012-10-30 23:55:00
5:15 PM,53.6,53.6,100,29.80,5.0,ENE,12.7,-,0.00,,Mostly Cloudy,70,2012-10-31 00:15:00
5:35 PM,53.6,53.6,100,29.80,3.0,ENE,12.7,-,0.02,,Overcast,60,2012-10-31 00:35:00
6:15 PM,53.6,53.6,100,29.78,7.0,East,9.2,-,0.00,,Overcast,80,2012-10-31 01:15:00
6:35 PM,53.6,53.6,100,29.78,8.0,East,12.7,18.4,0.01,,Overcast,80,2012-10-31 01:35:00
6:55 PM,53.6,53.6,100,29.77,8.0,East,8.1,-,0.01,,Overcast,80,2012-10-31 01:55:00
7:15 PM,53.6,53.6,100,29.77,9.0,East,11.5,-,0.00,,Overcast,80,2012-10-31 02:15:00
7:35 PM,53.6,53.6,100,29.76,9.0,ENE,13.8,-,0.00,,Overcast,70,2012-10-31 02:35:00
8:15 PM,55.4,55.4,100,29.75,6.0,East,9.2,-,0.01,,Overcast,80,2012-10-31 03:15:00
8:35 PM,55.4,55.4,100,29.75,5.0,East,5.8,-,0.01,,Overcast,90,2012-10-31 03:35:00
8:55 PM,55.4,55.4,100,29.74,9.0,East,9.2,-,0.02,,Overcast,90,2012-10-31 03:55:00
9:15 PM,55.4,55.4,100,29.74,10.0,East,11.5,-,0.00,,Overcast,80,2012-10-31 04:15:00
9:35 PM,55.4,55.4,100,29.74,8.0,East,6.9,-,0.00,,Overcast,80,2012-10-31 04:35:00
9:55 PM,57.2,57.2,100,29.74,10.0,East,5.8,-,0.00,,Overcast,90,2012-10-31 04:55:00
10:15 PM,57.2,57.2,100,29.74,10.0,East,8.1,-,0.00,,Overcast,80,2012-10-31 05:15:00
10:35 PM,59.0,59.0,100,29.74,9.0,SE,4.6,-,0.00,,Overcast,140,2012-10-31 05:35:00
10:55 PM,57.2,57.2,100,29.74,8.0,East,6.9,-,0.00,,Overcast,80,2012-10-31 05:55:00
11:15 PM,55.4,55.4,100,29.75,7.0,East,5.8,-,0.00,,Overcast,100,2012-10-31 06:15:00
11:35 PM,60.8,60.8,100,29.75,8.0,SE,10.4,-,0.01,,Overcast,130,2012-10-31 06:35:00
11:55 PM,60.8,60.8,100,29.75,5.0,SE,5.8,-,0.01,,Overcast,140,2012-10-31 06:55:00